Abingdon, VA

2:22 PM EDT on March 24, 2017 (GMT -0400)
Virginia Highlands

Weather History for KVJI - December, 2012

Change the Weather History Date:

Sunday, December 2, 2012

  Actual Average (KTRI) Record (KTRI)
Temperature  
Mean Temperature 52 °F -  
Max Temperature 66 °F 52 °F 75 °F (1982)
Min Temperature 38 °F 30 °F 13 °F (1960)
Degree Days  
Heating Degree Days 14    
Growing Degree Days 2 (Base 50)    
Moisture  
Dew Point 44 °F    
Average Humidity 77    
Maximum Humidity 99    
Minimum Humidity 51    
Precipitation  
Precipitation 0.00 in - - ()
Sea Level Pressure  
Sea Level Pressure 30.29 in    
Wind  
Wind Speed 3 mph (West)    
Max Wind Speed 20 mph    
Max Gust Speed 26 mph    
Visibility 10 miles    
Events      
Averages and records for this station are not official NWS values.
T = Trace of Precipitation, MM = Missing Value Source: NWS Daily Summary

Daily Weather History Graph

Daily Weather History Graph

Search for Another Location

Airport or City:

Trip Planner

Search our weather history database for the weather conditions in past years. The results will help you decide how hot, cold, wet, or windy it might be!

Date:

Astronomy

Dec. 02, 2012 Rise Set
Actual Time 7:23 AM EST 5:12 PM EST
Civil Twilight 6:54 AM EST 5:40 PM EST
Nautical Twilight 6:22 AM EST 6:12 PM EST
Astronomical Twilight 5:51 AM EST 6:43 PM EST
Moon 8:55 PM EST (12/2) 10:14 AM EST (12/2)
Length of Visible Light 10h 45m
Length of Day
9h 48m
Waning Gibbous, 86% of the Moon is Illuminated
Dec 2
Waning Gibbous
Dec 6
Last Quarter
Dec 13
New
Dec 20
First Quarter
Dec 28
Full

Hourly Weather History & Observations

Time (EST) Temp. Windchill Dew Point Humidity Pressure Visibility Wind Dir Wind Speed Gust Speed Precip Events Conditions
12:35 AM 42.8 °F - 40.5 °F 91% 30.32 in 10.0 mi Calm Calm - N/A   Clear
1:15 AM 40.6 °F 36.7 °F 38.8 °F 93% 30.32 in 10.0 mi ESE 5.8 mph - N/A   Clear
1:55 AM 43.5 °F 41.9 °F 39.9 °F 87% 30.32 in 10.0 mi East 3.5 mph - N/A   Clear
2:15 AM 43.0 °F - 40.1 °F 90% 30.33 in 10.0 mi Calm Calm - N/A   Clear
2:35 AM 41.4 °F - 39.2 °F 92% 30.33 in 10.0 mi Calm Calm - N/A   Clear
2:55 AM 41.7 °F - 40.3 °F 95% 30.33 in 10.0 mi Calm Calm - N/A   Clear
3:15 AM 39.7 °F - 38.1 °F 94% 30.33 in 10.0 mi Calm Calm - N/A   Clear
3:35 AM 41.0 °F - 39.6 °F 95% 30.32 in 10.0 mi Calm Calm - N/A   Clear
3:55 AM 40.3 °F - 39.2 °F 96% 30.32 in 10.0 mi Calm Calm - N/A   Clear
4:15 AM 39.6 °F - 38.8 °F 97% 30.31 in 10.0 mi Calm Calm - N/A   Clear
4:35 AM 39.2 °F - 38.7 °F 98% 30.32 in 10.0 mi Calm Calm - N/A   Clear
4:55 AM 38.7 °F - 37.8 °F 97% 30.32 in 10.0 mi Calm Calm - N/A   Clear
5:15 AM 38.7 °F - 37.8 °F 97% 30.31 in 10.0 mi Calm Calm - N/A   Clear
5:35 AM 38.1 °F 35.7 °F 37.9 °F 99% 30.32 in 10.0 mi ESE 3.5 mph - N/A   Clear
5:55 AM 39.4 °F - 38.8 °F 98% 30.32 in 10.0 mi Calm Calm - N/A   Clear
6:15 AM 39.2 °F - 38.8 °F 99% 30.32 in 10.0 mi Calm Calm - N/A   Clear
6:35 AM 39.9 °F - 39.6 °F 99% 30.32 in 10.0 mi Calm Calm - N/A   Clear
6:55 AM 39.6 °F - 38.8 °F 97% 30.32 in 10.0 mi Calm Calm - N/A   Clear
7:15 AM 39.2 °F - 38.8 °F 99% 30.32 in 10.0 mi Calm Calm - N/A   Clear
7:35 AM 38.3 °F 34.8 °F 37.9 °F 99% 30.32 in 10.0 mi East 4.6 mph - N/A   Clear
7:55 AM 38.7 °F - 38.3 °F 99% 30.32 in 10.0 mi Calm Calm - N/A   Clear
8:15 AM 39.0 °F - 38.8 °F 99% 30.32 in 10.0 mi Calm Calm - N/A   Clear
8:35 AM 41.9 °F - 40.5 °F 95% 30.32 in 10.0 mi Calm Calm - N/A   Clear
9:15 AM 46.4 °F - 44.6 °F 93% 30.33 in 10.0 mi Calm Calm - N/A   Clear
9:35 AM 49.6 °F - 46.4 °F 89% 30.33 in 10.0 mi Calm Calm - N/A   Clear
9:55 AM 51.6 °F - 46.6 °F 83% 30.33 in 10.0 mi Calm Calm - N/A   Clear
10:15 AM 53.6 °F - 47.8 °F 81% 30.33 in 10.0 mi Calm Calm - N/A   Clear
10:35 AM 55.9 °F - 47.7 °F 74% 30.33 in 10.0 mi Calm Calm - N/A   Clear
10:55 AM 59.0 °F - 48.0 °F 67% 30.32 in 10.0 mi Calm Calm - N/A   Clear
11:15 AM 61.9 °F - 48.2 °F 61% 30.32 in 10.0 mi SW 8.1 mph - N/A   Clear
11:35 AM 62.6 °F - 47.7 °F 58% 30.31 in 10.0 mi WSW 11.5 mph - N/A   Scattered Clouds
11:55 AM 63.7 °F - 47.5 °F 56% 30.30 in 10.0 mi West 8.1 mph - N/A   Mostly Cloudy
12:15 PM 63.7 °F - 47.3 °F 55% 30.29 in 10.0 mi West 12.7 mph 19.6 mph N/A   Overcast
12:35 PM 64.9 °F - 47.3 °F 53% 30.28 in 10.0 mi West 13.8 mph - N/A   Mostly Cloudy
12:55 PM 64.6 °F - 46.9 °F 53% 30.27 in 10.0 mi WSW 12.7 mph 19.6 mph N/A   Mostly Cloudy
1:15 PM 64.9 °F - 46.8 °F 52% 30.26 in 10.0 mi West 15.0 mph 21.9 mph N/A   Scattered Clouds
1:35 PM 64.9 °F - 47.1 °F 52% 30.25 in 10.0 mi West 19.6 mph 26.5 mph N/A   Clear
1:55 PM 65.7 °F - 47.7 °F 52% 30.25 in 10.0 mi West 17.3 mph - N/A   Clear
2:15 PM 65.7 °F - 47.3 °F 51% 30.24 in 10.0 mi West 15.0 mph 25.3 mph N/A   Scattered Clouds
2:55 PM 65.8 °F - 47.1 °F 51% 30.23 in 10.0 mi West 13.8 mph 20.7 mph N/A   Clear
3:15 PM 65.7 °F - 47.3 °F 51% 30.23 in 10.0 mi West 10.4 mph 19.6 mph N/A   Clear
3:35 PM 65.5 °F - 47.5 °F 52% 30.23 in 10.0 mi West 8.1 mph 18.4 mph N/A   Clear
3:55 PM 65.5 °F - 47.7 °F 53% 30.23 in 10.0 mi WNW 6.9 mph - N/A   Clear
4:15 PM 64.4 °F - 47.5 °F 54% 30.23 in 10.0 mi WNW 4.6 mph - N/A   Scattered Clouds
4:35 PM 64.2 °F - 47.3 °F 54% 30.23 in 10.0 mi West 8.1 mph - N/A   Scattered Clouds
4:55 PM 62.8 °F - 47.3 °F 57% 30.23 in 10.0 mi West 5.8 mph - N/A   Scattered Clouds
5:15 PM 61.7 °F - 47.3 °F 59% 30.24 in 10.0 mi West 4.6 mph - N/A   Mostly Cloudy
5:35 PM 60.3 °F - 47.3 °F 62% 30.24 in 10.0 mi WNW 3.5 mph - N/A   Mostly Cloudy
5:55 PM 60.1 °F - 47.3 °F 63% 30.24 in 10.0 mi Calm Calm - N/A   Mostly Cloudy
6:15 PM 58.3 °F - 46.9 °F 66% 30.24 in 10.0 mi Calm Calm - N/A   Mostly Cloudy
6:55 PM 55.0 °F - 46.4 °F 73% 30.25 in 10.0 mi Calm Calm - N/A   Mostly Cloudy
7:15 PM 56.8 °F - 47.3 °F 70% 30.25 in 10.0 mi West 4.6 mph - N/A   Scattered Clouds
7:35 PM 57.4 °F - 47.7 °F 70% 30.26 in 10.0 mi West 4.6 mph - N/A   Mostly Cloudy
7:55 PM 56.8 °F - 47.5 °F 71% 30.26 in 10.0 mi Calm Calm - N/A   Mostly Cloudy
8:15 PM 55.8 °F - 47.5 °F 74% 30.26 in 10.0 mi Calm Calm - N/A   Mostly Cloudy
8:35 PM 54.3 °F - 47.1 °F 77% 30.26 in 10.0 mi Calm Calm - N/A   Overcast
8:55 PM 54.5 °F - 48.0 °F 79% 30.26 in 10.0 mi West 3.5 mph - N/A   Overcast
9:15 PM 53.4 °F - 47.1 °F 79% 30.26 in 10.0 mi Calm Calm - N/A   Overcast
9:35 PM 53.6 °F - 47.7 °F 80% 30.26 in 10.0 mi Calm Calm - N/A   Overcast
9:55 PM 54.0 °F - 47.8 °F 80% 30.26 in 10.0 mi Calm Calm - N/A   Overcast
10:35 PM 55.2 °F - 48.4 °F 78% 30.27 in 10.0 mi Calm Calm - N/A   Overcast
10:55 PM 53.1 °F - 48.4 °F 84% 30.27 in 10.0 mi Calm Calm - N/A   Overcast
11:15 PM 55.0 °F - 48.6 °F 79% 30.27 in 10.0 mi Calm Calm - N/A   Overcast
11:35 PM 52.5 °F - 48.2 °F 85% 30.28 in 10.0 mi Calm Calm - N/A   Overcast